Time,TemperatureF,DewpointF,PressureIn,WindDirection,WindDirectionDegrees,WindSpeedMPH,WindSpeedGustMPH,Humidity,HourlyPrecipIn,Conditions,Clouds,dailyrainin,SoftwareType,DateUTC
2013-02-15 00:02:00,27.0,22.0,-100.00,WNW,300,0.0,2.0,81,-99.99,,,-99.99,,2013-02-15 05:02:00,
2013-02-15 00:12:00,27.0,22.0,-100.00,WNW,300,0.0,2.0,81,-99.99,,,-99.99,,2013-02-15 05:12:00,
2013-02-15 00:22:00,26.0,22.0,-100.00,NE,55,0.0,2.0,84,-99.99,,,-99.99,,2013-02-15 05:22:00,
2013-02-15 00:32:00,27.0,23.0,-100.00,West,260,2.0,3.0,84,-99.99,,,-99.99,,2013-02-15 05:32:00,
2013-02-15 00:42:00,26.0,22.0,-100.00,SE,125,1.0,3.0,84,-99.99,,,-99.99,,2013-02-15 05:42:00,
2013-02-15 00:52:00,26.0,22.0,-100.00,East,100,0.0,1.0,85,-99.99,,,-99.99,,2013-02-15 05:52:00,
2013-02-15 01:02:00,26.0,22.0,-100.00,SSE,150,0.0,5.0,85,-99.99,,,-99.99,,2013-02-15 06:02:00,
2013-02-15 01:11:00,25.0,22.0,-100.00,ESE,110,0.0,1.0,86,-99.99,,,-99.99,,2013-02-15 06:11:00,
2013-02-15 01:22:00,26.0,22.0,-100.00,NW,310,1.0,3.0,86,-99.99,,,-99.99,,2013-02-15 06:22:00,
2013-02-15 01:32:00,25.0,22.0,-100.00,SE,135,0.0,2.0,86,-99.99,,,-99.99,,2013-02-15 06:32:00,
2013-02-15 01:42:00,25.0,21.0,-100.00,ESE,110,0.0,1.0,87,-99.99,,,-99.99,,2013-02-15 06:42:00,
2013-02-15 01:52:00,24.0,21.0,-100.00,East,95,0.0,1.0,87,-99.99,,,-99.99,,2013-02-15 06:52:00,
2013-02-15 02:01:00,24.0,21.0,-100.00,SSE,150,0.0,1.0,88,-99.99,,,-99.99,,2013-02-15 07:01:00,
2013-02-15 02:11:00,24.0,21.0,-100.00,East,100,0.0,1.0,88,-99.99,,,-99.99,,2013-02-15 07:11:00,
2013-02-15 02:42:00,25.0,22.0,-100.00,NNE,30,1.0,2.0,89,-99.99,,,-99.99,,2013-02-15 07:42:00,
2013-02-15 02:52:00,25.0,22.0,-100.00,NNE,30,1.0,2.0,89,-99.99,,,-99.99,,2013-02-15 07:52:00,
2013-02-15 03:01:00,24.0,21.0,-100.00,WNW,285,1.0,2.0,89,-99.99,,,-99.99,,2013-02-15 08:01:00,
2013-02-15 03:11:00,24.0,21.0,-100.00,West,260,1.0,3.0,89,-99.99,,,-99.99,,2013-02-15 08:11:00,
2013-02-15 03:21:00,24.0,21.0,-100.00,West,265,2.0,3.0,89,-99.99,,,-99.99,,2013-02-15 08:21:00,
2013-02-15 03:32:00,25.0,22.0,-100.00,West,270,2.0,5.0,89,-99.99,,,-99.99,,2013-02-15 08:32:00,
2013-02-15 03:42:00,25.0,23.0,-100.00,NNE,15,0.0,3.0,90,-99.99,,,-99.99,,2013-02-15 08:42:00,
2013-02-15 03:52:00,24.0,21.0,-100.00,East,95,1.0,3.0,89,-99.99,,,-99.99,,2013-02-15 08:52:00,
2013-02-15 04:02:00,25.0,22.0,-100.00,ESE,120,1.0,6.0,90,-99.99,,,-99.99,,2013-02-15 09:02:00,
2013-02-15 08:32:00,33.0,32.0,-100.00,SW,230,5.0,10.0,94,-99.99,,,-99.99,,2013-02-15 13:32:00,
2013-02-15 11:32:00,45.0,33.0,-100.00,SW,235,6.0,15.0,62,-99.99,,,-99.99,,2013-02-15 16:32:00,
2013-02-15 14:32:00,49.0,35.0,-100.00,SW,215,8.0,20.0,57,-99.99,,,-99.99,,2013-02-15 19:32:00,
2013-02-15 17:32:00,45.0,35.0,-100.00,SW,215,8.0,10.0,68,-99.99,,,-99.99,,2013-02-15 22:32:00,
2013-02-15 17:42:00,45.0,35.0,-100.00,SW,220,6.0,10.0,69,-99.99,,,-99.99,,2013-02-15 22:42:00,
2013-02-15 20:32:00,37.0,34.0,-100.00,SSW,195,2.0,3.0,87,-99.99,,,-99.99,,2013-02-16 01:32:00,
2013-02-15 21:32:00,33.0,30.0,-100.00,East,85,0.0,2.0,90,-99.99,,,-99.99,,2013-02-16 02:32:00,